User: anonymous   Login
Location: Maiden_LMO
(35.5760°N, 81.2120°W)
Time: 01:36:03
(UTC-05:00)
Language:

ADEOS II - Orbit

View from above orbital plane
View from above orbital plane
View from above satellite
View from above satellite

Ground track
Ground track

The orbit data is extracted from the following two-line orbital elements,

1 27597U 02056A   18053.45592001 +.00000042 +00000-0 +34101-4 0  9995
2 27597 098.4064 017.8519 0000949 029.5728 330.5507 14.27335693791125
Epoch (UTC): 22 February 2018 10:56:31
Eccentricity: 0.0000949
inclination: 98.4064°
perigee height: 800 km
apogee height: 801 km
right ascension of ascending node: 17.8519°
argument of perigee: 29.5728°
revolutions per day: 14.27335693
mean anomaly at epoch: 330.5507°
orbit number at epoch: 79112

The dashed part of the orbit path shows where the satellite is in the earth's shadow,  

DLR